Tracking 21992 objects as of 28-Nov-2020
HD Live streaming from Space Station
objects crossing your sky now

FLOCK 4 EP 7

Track FLOCK 4 EP 7 now!
10-day predictions
FLOCK 4 EP 7 is classified as:


NORAD ID: 46814
Int'l Code: 2020-077B
Perigee: 516.8 km
Apogee: 534.6 km
Inclination: 97.5 °
Period: 95.0 minutes
Semi major axis: 6896 km
RCS: Unknown
Launch date: October 28, 2020
Source: United States (US)
Launch site: Rocket Lab Launch Complex (RLLC)
aabbcc
Your satellite tracking list
Your tracking list is empty




NASA's NSSDC Master Catalog

Two Line Element Set (TLE):
1 46814U 20077B   20333.77032470  .00004831  00000-0  25602-3 0  9994
2 46814  97.4973  33.8341 0012897 214.0559 262.5790 15.15794721  4679
Source of the keplerian elements: AFSPC